Regional Weather Roundup
Issued by NWS

Home | Current Version | Previous Version | Graphics & Text | Print | Product List | Glossary On
Versions: 1 2 3 4 5 6 7 8 9 10 11 12 13 14 15 16 17 18 19 20 21 22 23 24 25 26 27 28 29 30 31 32 33 34 35 36 37 38 39 40 41 42 43 44 45 46 47 48 49 50
000
ASUS43 KLOT 271012
RWRIL

ILLINOIS REGIONAL WEATHER ROUNDUP
NATIONAL WEATHER SERVICE CHICAGO/ROMEOVILLE IL
500 AM CDT MON APR 27 2015

NOTE: "FAIR" INDICATES FEW OR NO CLOUDS BELOW 12,000 FEET WITH NO
SIGNIFICANT WEATHER AND/OR OBSTRUCTIONS TO VISIBILITY.

* THESE STATIONS ARE NOT UNDER NWS QUALITY CONTROL. THEY ALSO MAY NOT
  REPORT WEATHER SUCH AS PRECIPITATION OR FOG.

ILZ001-002-007-009-015-016-024-271100-
NORTHWEST ILLINOIS

CITY           SKY/WX    TMP DP  RH WIND       PRES   REMARKS
MOLINE         CLEAR     37  33  85 E7        30.09R WCI  32
STERLING*      CLEAR     36  28  75 CALM      30.08F
SAVANNA*       CLEAR     38  29  71 N5        30.10S WCI  34
$$

ILZ003-004-008-010-011-017-018-271100-
NORTH CENTRAL ILLINOIS

CITY           SKY/WX    TMP DP  RH WIND       PRES   REMARKS
ROCKFORD       CLEAR     36  28  73 N6        30.10F WCI  31
FREEPORT*      CLEAR     33  27  79 CALM      30.11S
ROCHELLE*      CLEAR     33  30  88 NW5       30.08S WCI  29
DE KALB*       CLEAR     34  29  81 N7        30.06F WCI  28
PERU*          CLEAR     38  31  78 N5        30.08R WCI  34
$$

ILZ005-006-012>014-019>023-271100-
NORTHEAST ILLINOIS

CITY           SKY/WX    TMP DP  RH WIND       PRES   REMARKS
CHICAGO-OHARE  CLEAR     39  30  70 N10G22    30.04F WCI  32
CHICAGO-MIDWAY CLEAR     44  31  60 N13       30.04F
AURORA         CLEAR     35  29  78 N7        30.06S WCI  29
LANSING*       CLEAR     41  31  68 N9        30.02F
JOLIET*        CLEAR     40  33  75 N7        30.04F
WAUKEGAN       CLEAR     37  30  75 NW5       30.05F WCI  33
DUPAGE AIRPORT CLEAR     37  30  75 N8        30.05S WCI  31
KANKAKEE*      CLEAR     39  32  77 NW6       30.03S WCI  35
WHEELING       CLEAR     38  30  73 N7        30.07F WCI  33
MORRIS*        CLEAR     37  31  82 N5        30.02F WCI  33
ROMEOVILLE*    CLEAR     38  31  76 N5        30.04S WCI  34
NORTHERLY ISL    N/A     42  33  70 N17         N/A
$$

LMZ740>746-271100-
SOUTHERN LAKE MICHIGAN

STATION/POSITION SKY/WX   TEMP    WIND        PRES    VSBY  WAVE
                          AIR SEA DIR/SP/G                  HT/PER
                          (F)     (DEG/KT/KT) (MB)    (MI)  (FT/S)
HARRISON CRIB              40     360/ 19/ 23   N/A
BURNHAM HARBOR             42     360/ 14/ 18   N/A
CALUMET HARBOR             42     340/ 13/ 19   N/A
BURNS HARBOR               42      10/ 16/ 22 1017.3S
MICHIGAN CITY              40     340/ 21/ 23   N/A
MICHIGAN CITY 6N           41 45   10/ 17/ 21   N/A           4/ 5
$$

ILZ025>027-034>036-040-047-049-050-058-095>099-271100-
WEST-CENTRAL ILLINOIS

CITY           SKY/WX    TMP DP  RH WIND       PRES   REMARKS
QUINCY         CLEAR     38  32  79 N3        30.07S
GALESBURG*     CLEAR     34  32  93 CALM      30.09R
MACOMB*        CLEAR     37  34  89 N5        30.10R WCI  33
JACKSONVILLE*  CLEAR     37  35  90 N3        30.06F
PITTSFIELD*    CLEAR     39  35  87 W5        30.08R
$$

ILZ028>032-037-038-041>044-048-051>054-059>061-271100-
CENTRAL ILLINOIS

CITY           SKY/WX    TMP DP  RH WIND       PRES   REMARKS
PONTIAC        CLEAR     37  32  84 NW6       30.08R WCI  32
BLOOMINGTON    CLEAR     37  29  73 NW7       30.08R WCI  31
DECATUR        CLEAR     39  29  67 NW7       30.06R WCI  34
PEORIA         CLEAR     37  32  82 CALM      30.09R
LACON*         CLEAR     38  33  82 CALM      30.08R
LINCOLN*       CLEAR     38  32  78 W5        30.08R WCI  35
SPRINGFIELD    CLEAR     36  32  85 CALM      30.07R
TAYLORVILLE    CLEAR     34  32  93 N8        30.05F WCI  27
$$

ILZ033-039-045-046-055>057-062-063-271100-
EAST-CENTRAL ILLINOIS

CITY           SKY/WX    TMP DP  RH WIND       PRES   REMARKS
CHAMPAIGN      CLEAR     39  29  67 N10       30.04R WCI  32
DANVILLE*      CLEAR     37  31  79 NW9       29.99R WCI  30
RANTOUL*       CLEAR     39  31  74 NW8       30.05R WCI  33
MATTOON        CLEAR     35  28  75 N7        30.03R WCI  29
PARIS*         CLEAR     37  31  79 NW7       30.03R WCI  31
$$

ILZ079-100>102-271100-
SOUTHWEST ILLINOIS

CITY           SKY/WX    TMP DP  RH WIND       PRES   REMARKS
ALTON          CLEAR     39  36  87 CALM      30.04F
BELLEVILLE     CLEAR     41  34  76 N3        30.03R
CAHOKIA*       PTCLDY    40  37  89 CALM      30.04S
SPARTA*        PTCLDY    40  34  77 CALM      30.03R
$$

ILZ064>066-069>071-074>076-080>082-084>086-088>090-092>094-271100-
SOUTH-CENTRAL ILLINOIS

CITY           SKY/WX    TMP DP  RH WIND       PRES   REMARKS
CARBONDALE     CLEAR     39  34  82 NW3       30.01S
CAIRO*         CLEAR     45  36  70 NE6       29.99S
EFFINGHAM*     CLEAR     40  28  61 NW5       30.05R
MARION         CLEAR     39  34  81 CALM      30.01R
MT. VERNON     CLEAR     37  28  70 N3        30.02S
CENTRALIA*     CLEAR     37  32  83 N5        30.01F WCI  33
SALEM*         CLEAR     38  32  81 N6        30.03S WCI  33
METROPOLIS*    CLEAR     43  37  78 N6        29.98S
$$

ILZ067-068-072-073-078-083-087-091-271100-
SOUTHEAST ILLINOIS

CITY           SKY/WX    TMP DP  RH WIND       PRES   REMARKS
LAWRENCEVILLE  CLEAR     38  30  73 NW7       30.00S WCI  33
FLORA*         CLEAR     39  32  75 N7        30.02F WCI  34
FAIRFIELD*     CLEAR     41  32  69 N6        30.00S
HARRISBURG*    CLEAR     41  33  71 N5        30.02R
ROBINSON*      CLEAR     39  31  72 N9        30.01S WCI  33
CARMI*         CLEAR     39  32  75 NW5       30.00R
$$

ABBREVIATIONS USED IN REMARKS
   TC - TEMPERATURE IN CELSIUS
  WCI - WIND CHILL INDEX
   HX - HEAT INDEX
  VSB - VISIBILITY
$$



USA.gov is the U.S. government's official web portal to all federal, state and local government web resources and services.